This demonstration page uses our WeatherBlox Daily Observations layout. Learn more.

Left ArrowRight Arrow

30.21309, -93.2044

Hourly Observations for August 6, 2020

Temp ( °F °C ) Dew Point ( °F °C ) Humidity (%) Winds ( mph kmh ) Pressure ( in mb ) Visibility ( mi km ) Precip ( " mm )
12:15 am 00:15 Clear 76 24.3 75 23.9 98 98 Calm 29.99 1016 10 16 0.00 0.00
12:35 am 00:35 Clear 76 24.3 75 23.8 97 97 Calm 29.99 1016 10 16 0.00 0.00
12:55 am 00:55 Clear 76 24.4 75 23.9 97 97 Calm 29.99 1016 10 16 0.00 0.00
1:15 am 01:15 Clear 76 24.4 75 24 98 98 Calm 29.99 1016 7 11 0.00 0.00
1:35 am 01:35 Clear 76 24.4 75 24 98 98 Calm 29.99 1016 10 16 0.00 0.00
1:55 am 01:55 Clear 76 24.4 75 23.9 97 97 Calm 29.99 1016 10 16 0.00 0.00
2:15 am 02:15 Clear 76 24.5 75 23.8 96 96 Calm 29.98 1015 10 16 0.00 0.00
2:35 am 02:35 Clear 77 24.8 75 23.8 94 94 Calm 29.98 1015 10 16 0.00 0.00
2:55 am 02:55 Clear 77 24.9 75 23.9 94 94 WNW 3 6 29.98 1015 10 16 0.00 0.00
3:15 am 03:15 Clear 76 24.7 75 23.8 95 95 Calm 29.98 1015 10 16 0.00 0.00
3:35 am 03:35 Clear 76 24.5 75 23.9 96 96 Calm 29.98 1015 10 16 0.00 0.00
3:55 am 03:55 Clear 76 24.2 75 23.8 98 98 N 3 6 29.98 1015 7 11 0.00 0.00
4:15 am 04:15 Clear with Mist and Fog 75 24 74 23.6 98 98 NNE 3 6 29.98 1015 7 11 0.00 0.00
4:35 am 04:35 Clear with Mist and Fog 75 24 74 23.6 98 98 NNE 6 9 29.98 1015 7 11 0.00 0.00
4:55 am 04:55 Clear 74 23.6 74 23.2 98 98 NNE 5 7 29.98 1015 10 16 0.00 0.00
5:15 am 05:15 Clear 74 23.5 73 23 97 97 Calm 29.99 1016 10 16 0.00 0.00
5:35 am 05:35 Partly Cloudy 74 23.5 73 22.8 96 96 Calm 30.00 1016 10 16 0.00 0.00
6:00 am 06:00 Mostly Cloudy 73 23 73 23 100 100 Calm 30.00 1016 10 16 0.00 0.00
6:45 am 06:45 Partly Cloudy 73 23 73 23 100 100 Calm 30.01 1016 10 16 0.00 0.00
7:45 am 07:45 Mostly Cloudy 75 24 73 23 94 94 Calm 30.02 1017 10 16 0.00 0.00
8:45 am 08:45 Mostly Cloudy 79 26 75 24 89 89 VRB 5 7 30.03 1017 10 16 0.00 0.00
9:50 am 09:50 Partly Cloudy 81 27 75 24 84 84 Calm 30.03 1017 10 16 0.00 0.00
10:50 am 10:50 Mostly Cloudy 82 28 75 24 79 79 Calm 30.04 1017 10 16 0.00 0.00
11:47 am 11:47 Partly Cloudy 86 30 75 24 70 70 VRB 5 7 30.04 1017 10 16 0.00 0.00
12:50 pm 12:50 Mostly Sunny 88 31 75 24 66 66 VRB 6 9 30.03 1017 10 16 0.00 0.00
1:50 pm 13:50 Partly Cloudy 90 32 75 24 63 63 E 6 9 30.02 1017 10 16 0.00 0.00
2:45 pm 14:45 Partly Cloudy 90 32 73 23 59 59 N 7 11 30.01 1016 10 16 0.00 0.00
3:50 pm 15:50 Partly Cloudy 91 33 75 24 59 59 NNE 5 7 29.99 1016 10 16 0.00 0.00
4:45 pm 16:45 Partly Cloudy 91 33 72 22 52 52 WNW 3 6 29.98 1015 10 16 0.00 0.00
5:50 pm 17:50 Partly Cloudy 90 32 73 23 59 59 NNE 3 6 29.96 1015 10 16 0.00 0.00
6:50 pm 18:50 Partly Cloudy 90 32 73 23 59 59 NNE 3 6 29.96 1015 10 16 0.00 0.00
7:50 pm 19:50 Partly Cloudy 88 31 73 23 62 62 SSW 5 7 29.96 1015 10 16 0.00 0.00
8:45 pm 20:45 Partly Cloudy 84 29 77 25 79 79 SSW 5 7 29.97 1015 10 16 0.00 0.00
9:45 pm 21:45 Mostly Clear 82 28 77 25 84 84 SE 3 6 29.99 1016 10 16 0.00 0.00
10:15 pm 22:15 Clear 82 27.7 77 25.2 86 86 E 3 6 30.00 1016 10 16 0.00 0.00
10:35 pm 22:35 Clear 81 27.4 77 25 87 87 E 5 7 30.00 1016 10 16 0.00 0.00
10:55 pm 22:55 Clear 81 27.2 77 24.9 87 87 E 5 7 30.00 1016 10 16 0.00 0.00
11:15 pm 23:15 Clear 80 26.7 77 25.1 91 91 E 5 7 30.00 1016 10 16 0.00 0.00
11:35 pm 23:35 Clear 80 26.4 77 25 92 92 E 3 6 30.01 1016 10 16 0.00 0.00
11:55 pm 23:55 Clear 80 26.5 77 25 92 92 Calm 30.01 1016 7 11 0.00 0.00

Powered by AerisWeather